Location: Hackbridge
(51.3833°N, 0.1500°W)
Time: 13:26:57
(UTC+00:00)

MONITOR-E - Pass Details

Date: 13 October 2019
Orbit: 342 x 346 km, 97.1° (Epoch: 19 November)

Event Time Altitude Azimuth Distance (km) Brightness Sun altitude
Exits shadow 19:02:32 79° 116° (ESE) 369 3.7 -17.9°
Maximum altitude 19:02:38 81° 77° (ENE) 366 3.7 -17.9°
Drops below altitude 10° 19:05:30 10° 349° (N) 1,343 7.1 -18.4°
Sets 19:07:26 0° 348° (NNW) 2,195 8.2 -18.7°
